FENGYUN 1C DEB

Satellite information

Favourite Embed

Satellite Type and Status

DEBRISIN ORBIT

Key statistics

Satellite FENGYUN 1C DEB at a glance.

Uptime

9494

Days in orbit

Revolutions

≈ 14.8

Per day

Orbit

SSO

Sun Synchronous Orbit

Inclination

98.7

Latest

Satellite identification and parameters

Extended collection of information and parameters for FENGYUN 1C DEB.

Object identification

Identified? True

Debris? True

Object name: FENGYUN 1C DEB

International designator: 1999-025EMJ

Object number (NORAD): 37717

Object ID (CCSDS): 37717

Country: PEOPLES REPUBLIC OF CHINA (PRC)

Current information (Y/N): Y

RCS size: SMALL

Orbital parameters

Period: 97.156 minutes

Inclination: 98.7137 deg

SMA: 7000.692 km

Apoapsis: 674.141 km

Periapsis: 570.973 km

RAAN: 61.1018 deg

Eccentricy: 0.0073684

Argument of periapsis: 90.3118 deg

Mean anomaly: 30.5706 deg

Mean motion: 14.82146974 rev/day

Mean motion (dot): 0.00022719 rev/day2

B* drag term: 0.0027216 1/REarth

Two-line elements (TLE)

Creation date: May 7, 2025, 3:14 a.m.

Reference frame: TEME

Reference center: EARTH

Epoch: May 6, 2025, 3:25 p.m. UTC

TLE line 0: 0 FENGYUN 1C DEB

TLE line 1: 1 37717U 99025EMJ 25126.64279133 .00022719 00000-0 27216-2 0 9992

TLE line 2: 2 37717 98.7137 61.1018 0073684 90.3118 30.5706 14.82146974861270

Live tracking on map

Real-time ground track for satellite FENGYUN 1C DEB.

In-orbit conjunctions

A list of the most updated potential collisions computed for object FENGYUN 1C DEB.

Target Orbit TCA Probability of collision Miss distance Type
CZ-6A DEB LEO 2024-09-18 06:15:40 0.0001404285 921.0 (m) DEBRIS
NOAA 16 DEB SSO 2024-07-19 03:52:42 0.0001053122 55.0 (m) DEBRIS

Associated space launch

Chinese polar orbiting meteorological satellite

FENGYUN 1C DEB was lifted into orbit during the mission ‘Long March 4B | Feng Yun 1C’, on board a Long March 4B space rocket.

The launch took place on May 10, 1999, 1:33 a.m. from Launch Complex 7.

For more information about the launch, click the button.

Launch to space Long March 4B | Feng Yun 1C
Long March 4B | Feng Yun 1C

Agency: N/A

Status: Launch Successful

Launch date: May 10, 1999, 1:33 a.m. UTC

Rocket: Long March 4B

Launch pad: Launch Complex 7

Location: Taiyuan Satellite Launch Center, People's Republic of China

...

Latest news about this satellite

There are no fresh news available about this satellite. Check back as we update our databases every day.


Newsletter sign-up

Weekly statistics, charts and insights to help you stay on top of the space industry.